Meteo orario Abapo

Oggi, 6 Marzo, Sabato

Tempo Temperatura Precipitazioni Vento Pressione Umidità
00:00 +22°C° 0 mm 1 m/s 712 mm Hg 64%
01:00 +22°C° 0 mm 1 m/s 711 mm Hg 65%
02:00 +22°C° 0 mm 1 m/s 711 mm Hg 66%
03:00 +22°C° 0 mm 1 m/s 711 mm Hg 67%
04:00 +22°C° 0 mm 1 m/s 711 mm Hg 68%
05:00 +22°C° 0 mm 1 m/s 710 mm Hg 69%
06:00 +23°C° 0 mm 1 m/s 711 mm Hg 65%
07:00 +25°C° 0 mm 1 m/s 711 mm Hg 60%
08:00 +27°C° 0 mm 1 m/s 712 mm Hg 56%
09:00 +30°C° 0 mm 1 m/s 712 mm Hg 48%
10:00 +33°C° 0 mm 1 m/s 712 mm Hg 40%
11:00 +37°C° 0 mm 1 m/s 713 mm Hg 32%
12:00 +37°C° 0 mm 1 m/s 712 mm Hg 31%
13:00 +37°C° 0 mm 1 m/s 711 mm Hg 31%
14:00 +37°C° 0 mm 2 m/s 711 mm Hg 30%
15:00 +37°C° 0 mm 2 m/s 710 mm Hg 30%
16:00 +37°C° 0 mm 2 m/s 710 mm Hg 30%
17:00 +35°C° 0 mm 1 m/s 709 mm Hg 30%
18:00 +32°C° 0 mm 1 m/s 709 mm Hg 39%
19:00 +29°C° 0 mm 1 m/s 709 mm Hg 49%
20:00 +25°C° 0 mm 1 m/s 710 mm Hg 58%
21:00 +25°C° 0 mm 1 m/s 710 mm Hg 60%
22:00 +24°C° 0 mm 1 m/s 710 mm Hg 62%
23:00 +23°C° 0 mm 1 m/s 711 mm Hg 64%

Domani, 7 Marzo, Domenica

Tempo Temperatura Precipitazioni Vento Pressione Umidità
00:00 +23°C° 0 mm 1 m/s 711 mm Hg 65%
01:00 +22°C° 0 mm 1 m/s 710 mm Hg 66%
02:00 +22°C° 0 mm 1 m/s 710 mm Hg 67%
03:00 +21°C° 0 mm 1 m/s 710 mm Hg 68%
04:00 +21°C° 0 mm 1 m/s 710 mm Hg 70%
05:00 +21°C° 0 mm 1 m/s 710 mm Hg 71%
06:00 +23°C° 0 mm 1 m/s 710 mm Hg 66%
07:00 +25°C° 0 mm 1 m/s 711 mm Hg 60%
08:00 +26°C° 0 mm 1 m/s 712 mm Hg 55%
09:00 +30°C° 0 mm 1 m/s 712 mm Hg 45%
10:00 +34°C° 0 mm 1 m/s 712 mm Hg 36%
11:00 +39°C° 0 mm 1 m/s 712 mm Hg 26%
12:00 +40°C° 0 mm 1 m/s 712 mm Hg 24%
13:00 +40°C° 0 mm 1 m/s 711 mm Hg 22%
14:00 +41°C° 0 mm 2 m/s 710 mm Hg 21%
15:00 +40°C° 0 mm 2 m/s 709 mm Hg 22%
16:00 +39°C° 0 mm 3 m/s 709 mm Hg 24%
17:00 +38°C° 0 mm 3 m/s 708 mm Hg 26%
18:00 +34°C° 0 mm 2 m/s 708 mm Hg 37%
19:00 +30°C° 0 mm 2 m/s 708 mm Hg 48%
20:00 +27°C° 0 mm 1 m/s 708 mm Hg 59%
21:00 +26°C° 0 mm 1 m/s 709 mm Hg 63%
22:00 +25°C° 0 mm 1 m/s 710 mm Hg 66%
23:00 +24°C° 0 mm 1 m/s 710 mm Hg 70%

Dopodomani, 8 Marzo, Lunedi

Tempo Temperatura Precipitazioni Vento Pressione Umidità
00:00 +24°C° 0 mm 1 m/s 710 mm Hg 70%
01:00 +23°C° 0 mm 1 m/s 710 mm Hg 70%
02:00 +23°C° 0 mm 1 m/s 710 mm Hg 70%
03:00 +22°C° 0 mm 1 m/s 710 mm Hg 69%
04:00 +22°C° 0 mm 1 m/s 710 mm Hg 69%
05:00 +22°C° 0 mm 1 m/s 710 mm Hg 68%
06:00 +24°C° 0 mm 1 m/s 710 mm Hg 62%
07:00 +25°C° 0 mm 1 m/s 711 mm Hg 57%
08:00 +27°C° 0 mm 1 m/s 711 mm Hg 51%
09:00 +31°C° 0 mm 1 m/s 711 mm Hg 42%
10:00 +36°C° 0 mm 1 m/s 712 mm Hg 34%
11:00 +38°C° 0 mm 0 m/s 712 mm Hg 25%
12:00 +41°C° 0 mm 1 m/s 711 mm Hg 23%
13:00 +42°C° 0 mm 1 m/s 711 mm Hg 21%
14:00 +42°C° 0 mm 2 m/s 710 mm Hg 19%
15:00 +41°C° 0 mm 2 m/s 710 mm Hg 21%
16:00 +40°C° 0 mm 3 m/s 709 mm Hg 22%
17:00 +38°C° 0 mm 3 m/s 709 mm Hg 24%
18:00 +36°C° 0 mm 2 m/s 709 mm Hg 31%
19:00 +32°C° 0 mm 1 m/s 709 mm Hg 38%
20:00 +29°C° 0 mm 1 m/s 710 mm Hg 44%
21:00 +28°C° 0 mm 1 m/s 710 mm Hg 48%
22:00 +27°C° 0 mm 1 m/s 711 mm Hg 51%
23:00 +26°C° 0 mm 1 m/s 711 mm Hg 54%

9 Marzo, Martedi

Tempo Temperatura Precipitazioni Vento Pressione Umidità
00:00 +26°C° 0 mm 1 m/s 711 mm Hg 55%
01:00 +25°C° 0 mm 1 m/s 710 mm Hg 56%
02:00 +24°C° 0 mm 1 m/s 710 mm Hg 57%
03:00 +24°C° 0 mm 1 m/s 710 mm Hg 58%
04:00 +23°C° 0 mm 1 m/s 710 mm Hg 58%
05:00 +23°C° 0 mm 1 m/s 710 mm Hg 58%
06:00 +25°C° 0 mm 1 m/s 710 mm Hg 54%
07:00 +26°C° 0 mm 1 m/s 711 mm Hg 50%
08:00 +28°C° 0 mm 1 m/s 712 mm Hg 46%
09:00 +32°C° 0 mm 1 m/s 712 mm Hg 38%
10:00 +35°C° 0 mm 1 m/s 712 mm Hg 29%
11:00 +40°C° 0 mm 1 m/s 712 mm Hg 21%
12:00 +41°C° 0 mm 2 m/s 711 mm Hg 19%
13:00 +41°C° 0 mm 2 m/s 711 mm Hg 18%
14:00 +42°C° 0 mm 2 m/s 710 mm Hg 16%
15:00 +42°C° 0 mm 3 m/s 709 mm Hg 18%
16:00 +40°C° 0 mm 3 m/s 709 mm Hg 19%
17:00 +39°C° 0 mm 3 m/s 708 mm Hg 21%
18:00 +35°C° 0 mm 2 m/s 708 mm Hg 28%
19:00 +31°C° 0 mm 2 m/s 708 mm Hg 35%
20:00 +28°C° 0 mm 1 m/s 708 mm Hg 42%
21:00 +27°C° 0 mm 1 m/s 709 mm Hg 45%
22:00 +26°C° 0 mm 1 m/s 709 mm Hg 48%
23:00 +25°C° 0 mm 1 m/s 710 mm Hg 50%

10 Marzo, Mercoledi

Tempo Temperatura Precipitazioni Vento Pressione Umidità
00:00 +25°C° 0 mm 1 m/s 710 mm Hg 52%
01:00 +24°C° 0 mm 1 m/s 709 mm Hg 53%
02:00 +24°C° 0 mm 1 m/s 709 mm Hg 54%
03:00 +23°C° 0 mm 1 m/s 709 mm Hg 54%
04:00 +23°C° 0 mm 1 m/s 709 mm Hg 55%
05:00 +23°C° 0 mm 1 m/s 708 mm Hg 56%
06:00 +24°C° 0 mm 1 m/s 709 mm Hg 52%
07:00 +26°C° 0 mm 1 m/s 709 mm Hg 48%
08:00 +28°C° 0 mm 1 m/s 710 mm Hg 44%
09:00 +32°C° 0 mm 1 m/s 710 mm Hg 37%
10:00 +37°C° 0 mm 1 m/s 710 mm Hg 29%
11:00 +39°C° 0 mm 0 m/s 711 mm Hg 22%
12:00 +42°C° 0 mm 1 m/s 710 mm Hg 21%
13:00 +42°C° 0 mm 2 m/s 709 mm Hg 19%
14:00 +42°C° 0 mm 2 m/s 708 mm Hg 18%
15:00 +42°C° 0 mm 3 m/s 708 mm Hg 21%
16:00 +39°C° 0 mm 3 m/s 707 mm Hg 23%
17:00 +38°C° 0 mm 4 m/s 706 mm Hg 26%
18:00 +36°C° 0 mm 3 m/s 706 mm Hg 36%
19:00 +33°C° 0 mm 3 m/s 707 mm Hg 45%
20:00 +29°C° 0 mm 2 m/s 707 mm Hg 55%
21:00 +28°C° 0 mm 2 m/s 707 mm Hg 59%
22:00 +27°C° 0 mm 1 m/s 708 mm Hg 63%
23:00 +25°C° 0 mm 1 m/s 708 mm Hg 67%

11 Marzo, Giovedi

Tempo Temperatura Precipitazioni Vento Pressione Umidità
00:00 +25°C° 0 mm 1 m/s 708 mm Hg 69%
01:00 +24°C° 0 mm 1 m/s 707 mm Hg 72%
02:00 +22°C° 0 mm 0 m/s 707 mm Hg 74%
03:00 +21°C° 0 mm 0 m/s 707 mm Hg 75%
04:00 +23°C° 0 mm 1 m/s 707 mm Hg 75%
05:00 +22°C° 0 mm 1 m/s 707 mm Hg 76%
06:00 +22°C° 0 mm 0 m/s 707 mm Hg 69%
07:00 +24°C° 0 mm 0 m/s 708 mm Hg 62%
08:00 +26°C° 0 mm 0 m/s 708 mm Hg 55%
09:00 +31°C° 0 mm 1 m/s 709 mm Hg 47%
10:00 +34°C° 0 mm 1 m/s 709 mm Hg 38%
11:00 +38°C° 0 mm 2 m/s 709 mm Hg 30%
12:00 +39°C° 0 mm 3 m/s 708 mm Hg 28%
13:00 +40°C° 0 mm 3 m/s 708 mm Hg 26%
14:00 +42°C° 0 mm 4 m/s 707 mm Hg 24%
15:00 +40°C° 0 mm 5 m/s 707 mm Hg 28%
16:00 +39°C° 0 mm 5 m/s 706 mm Hg 33%
17:00 +37°C° 0 mm 5 m/s 706 mm Hg 37%
18:00 +34°C° 0.1 mm 4 m/s 706 mm Hg 46%
19:00 +30°C° 0.1 mm 3 m/s 707 mm Hg 56%
20:00 +27°C° 0.1 mm 2 m/s 707 mm Hg 65%
21:00 +26°C° 0.1 mm 1 m/s 708 mm Hg 71%
22:00 +25°C° 0.1 mm 1 m/s 708 mm Hg 76%
23:00 +24°C° 0.1 mm 1 m/s 709 mm Hg 81%
Mostrare altro

Abbiamo bisogno del tuo consenso

Meteoprog e i nostri fornitori di servizi possono memorizzare e accedere a dati personali come cookie, identificatori di dispositivi o altre tecnologie simili sul tuo dispositivo e possono elaborare tali dati per personalizzare i contenuti e gli annunci, nonché fornire funzionalità dei social media e analizzarne il traffico.

  • Archiviare e/o accedere alle informazioni sul tuo dispositivo

    Cookie, identificatori di dispositivi o altre informazioni possono essere memorizzati o resi accessibili sul tuo dispositivo per le finalità sopra indicate.

  • Annunci e contenuti personalizzati, misurazione di annunci e contenuti, approfondimenti sul pubblico e sviluppo di prodotti

    Gli annunci e i contenuti possono essere personalizzati in base a un profilo. È possibile aggiungere più dati per personalizzare meglio annunci e contenuti. È possibile misurare il rendimento degli annunci e dei contenuti. È possibile ricavare informazioni sul pubblico che ha visto gli annunci e i contenuti. Tali dati possono essere utilizzati per sviluppare o migliorare l'esperienza, i sistemi e il software dell'utente.

Cliccando su “Accetto”, acconsenti all'uso di cookie, identificatori di dispositivo, web beacon o altre tecnologie simili. Puoi modificare le impostazioni nel browser del tuo dispositivo.

Per determinati scopi, è possibile fare affidamento su interessi legali, piuttosto che sul consenso. Puoi approfondire questo argomento consultando la nostra Informativa sulla privacy e sui cookie.